MicroStrategy PE Ratio 2010-2024 | MSTR

Current and historical p/e ratio for MicroStrategy (MSTR) from 2010 to 2024. The price to earnings ratio is calculated by taking the latest closing price and dividing it by the most recent earnings per share (EPS) number. The PE ratio is a simple way to assess whether a stock is over or under valued and is the most widely used valuation measure. MicroStrategy PE ratio as of July 19, 2024 is 0.00.

Please refer to the Stock Price Adjustment Guide for more information on our historical prices.

MicroStrategy PE Ratio Historical Data
Date Stock Price TTM Net EPS PE Ratio
2024-07-19 1778.50 0.00
2024-03-31 1704.56 $-6.70 0.00
2023-12-31 631.62 $28.18 22.41
2023-09-30 328.28 $1.29 254.48
2023-06-30 342.42 $8.99 38.09
2023-03-31 292.32 $-86.54 0.00
2022-12-31 141.57 $-129.91 0.00
2022-09-30 212.26 $-116.41 0.00
2022-06-30 164.30 $-117.63 0.00
2022-03-31 486.32 $-54.33 0.00
2021-12-31 544.49 $-54.15 0.00
2021-09-30 578.40 $-45.45 0.00
2021-06-30 664.50 $-43.32 0.00
2021-03-31 678.80 $-12.26 0.00
2020-12-31 388.55 $-0.79 0.00
2020-09-30 150.56 $0.12 1254.67
2020-06-30 118.29 $2.54 46.57
2020-03-31 118.10 $4.17 28.32
2019-12-31 142.63 $3.33 42.83
2019-09-30 148.37 $2.45 60.56
2019-06-30 143.31 $2.61 54.91
2019-03-31 144.25 $1.05 137.38
2018-12-31 127.75 $1.97 64.85
2018-09-30 140.62 $-0.62 0.00
2018-06-30 127.75 $-0.16 0.00
2018-03-31 128.99 $0.38 339.45
2017-12-31 131.30 $1.51 86.95
2017-09-30 127.71 $6.49 19.68
2017-06-30 191.67 $7.24 26.47
2017-03-31 187.80 $7.92 23.71
2016-12-31 197.40 $7.88 25.05
2016-09-30 167.44 $8.57 19.54
2016-06-30 175.02 $8.32 21.04
2016-03-31 179.72 $8.63 20.83
2015-12-31 179.29 $9.18 19.53
2015-09-30 196.47 $7.79 25.22
2015-06-30 170.08 $5.66 30.05
2015-03-31 169.19 $2.80 60.43
2014-12-31 162.40 $0.44 369.09
2014-09-30 130.84 $-0.12 0.00
2014-06-30 140.62 $1.47 95.66
2014-03-31 115.39 $2.24 51.51
2013-12-31 124.24 $7.38 16.83
2013-09-30 103.76 $6.68 15.53
2013-06-30 86.96 $5.59 15.56
2013-03-31 101.08 $6.38 15.84
2012-12-31 93.38 $1.83 51.03
2012-09-30 134.07 $1.91 70.19
2012-06-30 129.86 $1.92 67.64
2012-03-31 140.00 $1.53 91.50
2011-12-31 108.32 $3.11 34.83
2011-09-30 114.07 $2.93 38.93
2011-06-30 162.68 $3.46 47.02
2010-12-31 85.47 $3.76 22.73
2010-09-30 86.61 $3.82 22.67
2010-06-30 75.09 $3.29 22.82
2010-03-31 85.07 $4.05 21.00
2009-12-31 94.02 $4.30 21.87
2011-03-31 134.48 $4.52 29.75
Sector Industry Market Cap Revenue
Computer and Technology Computer Software $31.545B $0.496B
MicroStrategy Incorporated, a leading worldwide provider of business intelligence software, today announced that GT Nexus has selected MicroStrategy to power the customer-facing analytics and reporting capabilities on its Global Logistics portal. The GT Nexus portal is an on demand technology platform that is used by importers, exporters, transportation carriers, suppliers, banks, and other partners to manage goods that are moving around the world. The GT Nexus system captures and stores hard-to-get data associated with global supply chains, and then fuels a range of Web applications that can be used by constituents to lower supply chain costs and improve control. MicroStrategy will help GT Nexus to deliver a wide range of analytics and reporting capabilities to its customers, which include Home Depot, Kmart, Xerox, Weyerhaeuser, and American Eagle Outfitters.
Stock Name Country Market Cap PE Ratio
Microsoft (MSFT) United States $3248.735B 37.85
Oracle (ORCL) United States $381.852B 31.00
Adobe (ADBE) United States $244.313B 39.53
Salesforce (CRM) United States $239.953B 35.73
Intuit (INTU) United States $177.948B 55.45
Synopsys (SNPS) United States $86.279B 59.46
Cadence Design Systems (CDNS) United States $76.265B 72.53
Autodesk (ADSK) United States $52.250B 47.63
Dassault Systemes SA (DASTY) France $50.191B 32.61
ANSYS (ANSS) United States $27.459B 50.81
PTC (PTC) United States $21.058B 55.85
SS&C Technologies Holdings (SSNC) United States $16.459B 15.59
Manhattan Associates (MANH) United States $13.459B 71.43
Descartes Systems Group (DSGX) Canada $8.488B 71.01
Open Text (OTEX) Canada $8.286B 8.50
Trend Micro (TMICY) Japan $6.411B 46.43
CommVault Systems (CVLT) United States $5.299B 85.87
Pegasystems (PEGA) United States $5.074B 44.86
ACI Worldwide (ACIW) United States $4.369B 20.93
Blackbaud (BLKB) United States $3.993B 34.38
Progress Software (PRGS) United States $2.376B 15.26
Sapiens (SPNS) Israel $2.193B 29.91
Verint Systems (VRNT) United States $2.091B 19.58
BlackBerry (BB) Canada $1.429B 0.00
PROS Holdings (PRO) United States $1.109B 0.00
Simulations Plus (SLP) United States $0.791B 59.01
Rand Worldwide (RWWI) United States $0.663B 0.00
Magic Software Enterprises (MGIC) Israel $0.544B 11.54
Canaan (CAN) China $0.339B 0.00
American Software (AMSWA) United States $0.320B 27.49
OptimizeRx (OPRX) United States $0.183B 0.00
Rigetti Computing (RGTI) United States $0.179B 0.00
Neonode (NEON) Sweden $0.048B 0.00
Icad Inc (ICAD) United States $0.035B 0.00
NetSol Technologies (NTWK) United States $0.032B 0.00
Wetouch Technology (WETH) $0.026B 0.00
Smith Micro Software (SMSI) United States $0.022B 0.00
Hanryu Holdings (HRYU) South Korea $0.014B 0.00
GSE Systems (GVP) United States $0.011B 0.00
SAP SE (SAP) Germany $0.000B 50.44